Location: Ciserano
(45.5833°N, 9.6000°E)
Time: 06:18:38
(UTC+00:00)

Genesis I - Pass Details

Date: 29 November 2020
Orbit: 493 x 528 km, 64.5° (Epoch: 27 January)

Event Time Altitude Azimuth Distance (km) Brightness Sun altitude
Exits shadow 05:24:31 11° 241° (WSW) 1,667 5.4 -12.8°
Maximum altitude 05:28:02 41° 312° (NW) 738 3.5 -12.2°
Drops below altitude 10° 05:31:43 10° 24° (NNE) 1,727 5.9 -11.6°
Sets 05:34:00 0° 32° (NNE) 2,622 7.0 -11.2°
